FW9176 Weather Reports


time (UTC)temp
C
wind
direction
speed
KPH
gust
KPH
rain 1hr
cm
rain 24hr
cm
rain mn
cm
humidity
%
barometer
mb
20260904173101 28 131 0.0 6.4 0.00 0.00 0.00 65 1013.7
20260904171614 28 65 1.6 6.4 0.00 0.00 0.00 64 1014.0
20260904170125 28 128 3.2 6.4 0.00 0.00 0.00 64 1014.1
20260904164619 27 0 0.0 6.4 0.00 0.00 0.00 67 1014.4
20260904163101 27 53 1.6 11.3 0.00 0.00 0.00 67 1014.5
20260904161559 27 41 3.2 8.0 0.00 0.00 0.00 68 1014.7
20260904160059 28 52 3.2 6.4 0.00 0.00 0.00 67 1014.3
20260904154559 27 53 1.6 4.8 0.00 0.00 0.00 71 1014.1
20260904153109 27 62 0.0 4.8 0.00 0.00 0.00 73 1013.7
20260904151601 27 0 0.0 4.8 0.00 0.00 0.00 74 1013.5
20260904150058 27 59 0.0 3.2 0.00 0.00 0.00 74 1013.2
20260904144559 28 0 0.0 0.0 0.00 0.00 0.00 73 1013.0
20260904143106 27 0 0.0 1.6 0.00 0.00 0.00 73 1013.0
20260904141602 27 0 0.0 3.2 0.00 0.00 0.00 75 1012.9
20260904140100 27 0 0.0 3.2 0.00 0.00 0.00 74 1012.7
20260904134601 27 0 0.0 0.0 0.00 0.00 0.00 73 1012.5
20260904133100 26 0 0.0 0.0 0.00 0.00 0.00 74 1012.2
20260904131612 26 0 0.0 0.0 0.00 0.00 0.00 76 1012.3
20260904130056 25 0 0.0 0.0 0.00 0.00 0.00 78 1012.0
20260904124559 25 0 0.0 0.0 0.00 0.00 0.00 79 1011.9
20260904123100 25 0 0.0 0.0 0.00 0.00 0.00 80 1011.7
20260904121601 25 0 0.0 0.0 0.00 0.00 0.00 79 1011.2
20260904120103 25 0 0.0 0.0 0.00 0.00 0.00 79 1010.9
20260904114606 25 0 0.0 0.0 0.00 0.00 0.00 78 1010.6
20260904113100 25 0 0.0 0.0 0.00 0.00 0.00 78 1010.4
20260904111558 25 0 0.0 0.0 0.00 0.00 0.00 77 1010.4
20260904104601 25 0 0.0 3.2 0.00 0.00 0.00 76 1009.9
20260904103112 25 0 0.0 0.0 0.00 0.00 0.00 76 1009.9
20260904101610 26 136 0.0 3.2 0.00 0.00 0.00 76 1010.0
20260904100111 25 0 0.0 1.6 0.00 0.00 0.00 77 1009.8
20260904094611 25 0 0.0 1.6 0.00 0.00 0.00 78 1009.7
20260904093108 25 0 0.0 0.0 0.00 0.00 0.00 79 1009.9
20260904091611 25 0 0.0 0.0 0.00 0.00 0.00 79 1010.2
20260904090057 25 0 0.0 0.0 0.00 0.00 0.00 79 1010.5
20260904084558 25 0 0.0 0.0 0.00 0.00 0.00 80 1010.7
20260904083104 26 0 0.0 0.0 0.00 0.00 0.00 79 1010.7
20260904081609 26 0 0.0 0.0 0.00 0.00 0.00 78 1010.6
20260904074559 26 0 0.0 4.8 0.00 0.00 0.00 78 1010.1
20260904073126 26 141 0.0 4.8 0.00 0.00 0.00 78 1009.8
20260904071604 26 0 0.0 4.8 0.00 0.00 0.00 78 1009.8
20260904064605 26 0 0.0 4.8 0.00 0.00 0.00 79 1010.3
20260904063109 26 0 0.0 0.0 0.00 0.00 0.00 79 1010.8
20260904061557 26 0 0.0 0.0 0.00 0.00 0.00 79 1011.2
20260904060129 26 0 0.0 1.6 0.00 0.00 0.00 78 1011.3
20260904054628 27 0 0.0 0.0 0.00 0.00 0.00 78 1011.4
20260904053104 27 0 0.0 3.2 0.00 0.00 0.00 78 1011.4
20260904051601 27 170 0.0 3.2 0.00 0.00 0.00 77 1011.2
20260904050059 27 164 0.0 1.6 0.00 0.00 0.00 77 1011.0
20260904044604 27 0 0.0 1.6 0.00 0.00 0.00 77 1011.0
20260904043105 27 0 0.0 0.0 0.00 0.00 0.00 77 1011.2
20260904041608 27 0 0.0 1.6 0.00 0.00 0.00 76 1011.3
20260904034558 28 0 0.0 0.0 0.00 0.00 0.00 76 1011.3
20260904033101 28 0 0.0 3.2 0.00 0.00 0.00 76 1011.3
20260904031605 28 0 0.0 0.0 0.00 0.00 0.00 75 1011.4
20260904030103 28 0 0.0 1.6 0.00 0.00 0.00 75 1011.3
20260904024604 28 0 0.0 1.6 0.00 0.00 0.00 74 1011.3
20260904023102 28 0 0.0 0.0 0.00 0.00 0.00 75 1011.4
20260904021555 28 0 0.0 0.0 0.00 0.00 0.00 74 1011.3
20260904020105 28 0 0.0 0.0 0.00 0.00 0.00 74 1011.1
20260904014620 28 0 0.0 0.0 0.00 0.00 0.00 73 1011.1
20260904013121 28 0 0.0 1.6 0.00 0.00 0.00 72 1011.0
20260904011603 28 0 0.0 1.6 0.00 0.00 0.00 72 1010.7
20260904010115 28 0 0.0 1.6 0.00 0.00 0.00 71 1010.2
20260904004618 28 0 0.0 1.6 0.00 0.00 0.00 70 1010.1
20260904003121 28 0 0.0 1.6 0.00 0.00 0.00 69 1010.0
20260904001601 29 0 0.0 1.6 0.00 0.00 0.00 69 1010.2
20260904000101 29 0 0.0 1.6 0.00 0.00 0.00 68 1010.3
20260903234601 30 0 0.0 1.6 0.00 0.00 0.00 67 1010.5
20260903233104 30 0 0.0 1.6 0.00 0.00 0.00 67 1010.5
20260903231606 30 79 0.0 1.6 0.00 0.00 0.00 66 1010.6
20260903230103 30 0 0.0 3.2 0.00 0.00 0.00 65 1010.7
20260903224557 30 0 0.0 3.2 0.00 0.00 0.00 64 1010.5
20260903223114 31 68 1.6 3.2 0.00 0.00 0.00 63 1010.4
20260903221559 31 73 0.0 3.2 0.00 0.00 0.00 59 1010.6
20260903220101 32 0 0.0 1.6 0.00 0.00 0.00 59 1010.7
20260903214606 32 188 1.6 6.4 0.00 0.00 0.00 62 1010.5
20260903213105 32 165 0.0 6.4 0.00 0.00 0.00 61 1010.6
20260903211612 32 0 0.0 6.4 0.00 0.00 0.00 61 1010.8
20260903210107 32 0 0.0 4.8 0.00 0.00 0.00 61 1010.8
20260903204559 32 0 3.2 8.0 0.00 0.00 0.00 62 1010.9
20260903203101 32 196 1.6 6.4 0.00 0.00 0.00 62 1011.0
20260903201606 32 179 1.6 6.4 0.00 0.00 0.00 60 1011.1
20260903194600 31 92 0.0 4.8 0.00 0.00 0.00 60 1011.3
20260903193108 31 172 0.0 3.2 0.00 0.00 0.00 61 1011.5
20260903191558 31 0 0.0 1.6 0.00 0.00 0.00 62 1011.9
20260903190111 30 0 0.0 1.6 0.00 0.00 0.00 64 1012.0
20260903184606 30 0 0.0 3.2 0.00 0.00 0.00 66 1012.1
20260903183107 30 0 0.0 3.2 0.00 0.00 0.00 68 1012.3
20260903181558 29 60 0.0 4.8 0.00 0.00 0.00 70 1012.7
20260903180110 29 35 0.0 4.8 0.00 0.00 0.00 71 1012.8
20260903174611 29 359 0.0 6.4 0.00 0.00 0.00 70 1013.1